Погода в Бучалках

Россия / Тульская область     53°45′21″N   38°46′26″E
темп.,
°C
ветер,
м/с
пор.,
м/с
влажн.,
%
обл.,
%
осадки,
мм/ч
давл.,
гПа
погр.,
м
18 мая, вт
вт1800:00+19юв6166768 0.0 1009359
03:00+16вюв513705 0.0 1009258
06:00+15вюв51275100 0.0 1008237
09:00+21юв613582 0.0 1008460
12:00+24вюв610473 0.0 1008701
15:00+26вюв714520 0.0 10061527
18:00+24вюв815625 0.0 1005778
21:00+19юв410800 0.0 1006184
19 мая, ср
ср1900:00+16ююз22935 0.8 100639
03:00+15ююв239090 0.9 100765
06:00+15ююв599111 0.1 1007422
09:00+18ююв587517 0.1 1008796
12:00+21юв68596 0.0 10081603
15:00+23юв685676 0.0 10071821
18:00+20юв4973100 0.7 1006475
21:00+17юв41084100 1.9 1006241
20 мая, чт
чт2000:00+14ю229246 0.0 100521
03:00+13юв5119493 0.0 1006471
06:00+13ююв6129199 0.0 1006721
09:00+15ююв7107766 0.1 10061062
12:00+17ююв797198 1.1 10061384
15:00+17ю686976 2.3 10071193
18:00+16ю487690 0.4 1007360
21:00+13юз389466 0.9 1008232
21 мая, пт
пт2100:00+12ююз3794100 0.1 1008295
03:00+12юз51096100 0.5 1009491
06:00+11зюз5995100 0.4 1010571
09:00+12з698537 0.6 1012738
12:00+15зюз5670100 0.2 10141362
15:00+15зюз4573100 0.3 1015823
18:00+15зсз2270100 0.1 1016668
21:00+13с2278100 0.1 101720
22 мая, сб
сб2200:00+12св1188100 0.5 101723
03:00+11ссв3698100 9.3 1016244
06:00+11ссв4798100 5.5 1017307
09:00+11св51096100 6.1 1016414
12:00+13св5791100 0.1 1016575
15:00+15ссв5684100 0.1 1016734
18:00+14ссв578797 0.0 1016615
21:00+12св489176 0.0 1017360